Regional Weather Roundup
Issued by NWS

Home | Current Version | Previous Version | Text Only | Print | Product List | Glossary Off
Versions: 1 2 3 4 5 6 7 8 9 10 11 12 13 14 15 16 17 18 19 20 21 22 23 24 25 26

000
ASUS45 KBOU 210210
RWRCO

WEATHER ROUNDUP FOR COLORADO
NATIONAL WEATHER SERVICE DENVER/BOULDER CO
800 PM MDT SUN MAY 20 2018

NOTE: "FAIR" INDICATES FEW OR NO CLOUDS BELOW 12000 FEET WITH NO
SIGNIFICANT WEATHER AND/OR OBSTRUCTIONS TO VISIBILITY.

COZ001>005-013-030-031-210300-
...NORTHWEST COLORADO...

CITY           SKY/WX    TMP DP  RH WIND       PRES   REMARKS
CRAIG          FAIR      56  39  53 S18       30.08S
HAYDEN         FAIR      53  39  59 SW10G17   30.13R
MEEKER         LGT RAIN  49  44  83 E17       30.12F
RANGELY        FAIR      63  38  39 NW5       30.02F
RABBIT EARS PA CLOUDY    37  32  81 CALM      30.31R
STEAMBOAT SPGS MOCLDY    55  40  55 S3        30.13R
WALDEN         FAIR      50  37  62 CALM      30.19S
$$

COZ006>008-011-210300-
...WEST CENTRAL VALLEYS...

CITY           SKY/WX    TMP DP  RH WIND       PRES   REMARKS
GRAND JUNCTION FAIR      65  39  38 E7        29.95S
MONTROSE       FAIR      65  32  29 E18       30.00F
EAGLE          FAIR      59  35  40 N13G22    30.13R
RIFLE          FAIR      60  41  49 SW7       30.07S
DELTA          FAIR      71  29  21 NE9       29.98F
NUCLA          FAIR      64  32  29 NW3       30.01S
$$

COZ017>023-064>068-210300-
...SOUTHWEST COLORADO...

CITY           SKY/WX    TMP DP  RH WIND       PRES   REMARKS
DURANGO        FAIR      71  10   9 S8        30.01R
CORTEZ         FAIR      71   6   8 SW6       29.96R
PAGOSA SPRINGS FAIR      65  14  14 S6        30.12R
TELLURIDE      MOCLDY    56  22  27 E7        30.18F
WOLF CREEK PAS FAIR      34  28  80 CALM      30.41F
$$

COZ009-010-012-014-032>034-037-058>063-210300-
...CENTRAL COLORADO...

CITY           SKY/WX    TMP DP  RH WIND       PRES   REMARKS
ASPEN          FAIR      55  32  41 SE6       30.15F
BUENA VISTA    FAIR      51  34  51 SE6       30.22R
COPPER MTN     FAIR      39  30  70 S18       30.39R
BERTHOUD PASS  MOCLDY    30  19  64 W7G18     30.41R WCI  23
COTTONWOOD PAS FAIR      50  34  53 SE6       30.30R
GUNNISON       FAIR      49  36  61 E10       30.20R
GRANBY         CLOUDY    51  36  56 SW3       30.20R
KREMMLING      LGT RAIN  59  34  38 SW3       30.17R
LEADVILLE      CLOUDY    45  29  53 SE7       30.28R
MONARCH PASS   FAIR      36  25  64 MISG      30.48S
SALIDA         FAIR      53  40  63 SE7       30.27S
SUNLIGHT       FAIR      37  28  70 SE3       30.33F
WILKERSON PASS FOG       36  34  93 SE5       30.40S VSB<1/4
$$

COZ069>075-210300-
...SAN LUIS VALLEY/SANGRE DE CRISTO MOUNTAINS...

CITY           SKY/WX    TMP DP  RH WIND       PRES   REMARKS
ALAMOSA        FAIR      54  35  48 NE14      30.18S
DEL NORTE      FAIR      50  35  56 E6        30.21S
LA VETA PASS   LGT RAIN  37  34  87 S20G29    30.44S
SAGUACHE       NOT AVBL
$$

COZ035-036-038>040-210300-
...NORTHERN COLORADO FRONT RANGE...

CITY           SKY/WX    TMP DP  RH WIND       PRES   REMARKS
DENVER INTL AP MOCLDY    53  44  71 S12       30.13F
AURORA         MOCLDY    51  45  78 S10       30.15F
FRONT RANGE AP MOCLDY    54  46  76 SW8       30.16F
ERIE MUNI ARPT FAIR      51  47  86 CALM      30.18F
BOULDER MUN AP FAIR      50  48  93 CALM      30.13F
CENTENNIAL     LGT RAIN  50  45  83 S10       30.16F
BROOMFIELD     CLOUDY    50  48  93 N9        30.15S
FORT COLLINS   FAIR      51  47  86 S7        30.13S
LONGMONT       FAIR      54  47  77 CALM      30.15F
$$

COZ041-046-047-076>085-087-088-210300-
...PIKES PEAK/PALMER DIVIDE AND SOUTHERN FOOTHILLS...

CITY           SKY/WX    TMP DP  RH WIND       PRES   REMARKS
COLO. SPRINGS  MOCLDY    52  46  80 W6        30.19S
A. F. ACADEMY  FAIR      50  43  77 N13       30.20R
SCHRIEVER AFB  NOT AVBL
CHEYENNE MTN   MOCLDY    49  43  80 CALM      30.16R
ELLICOTT         N/A    N/A N/A N/A MISG      30.17S
FALCON         CLOUDY    51  41  69 W7        30.21S
FORT CARSON    FAIR      54  47  78 W5        30.17R
LIMON          CLOUDY    58  42  55 CALM      30.16R
MONUMENT HILL  MOCLDY    43  41  93 NW9       30.24S
CANON CITY     FAIR      54  52  94 W13       30.16R
WALSENBURG     CLOUDY    57  50  77 E8        30.19S
TRINIDAD       LGT RAIN  56  48  74 NE12      30.16R
$$

COZ042>045-048>051-090-091-210300-
...NORTHEAST COLORADO...

CITY           SKY/WX    TMP DP  RH WIND       PRES   REMARKS
GREELEY ARPT   FAIR      55  47  74 NW3       30.14S
AKRON          FAIR      53  46  77 SE6       30.14F
BURLINGTON     FAIR      54  45  71 E6        30.15S
WRAY           FAIR      55  46  71 E3        30.14F
YUMA           FAIR      52  34  50 E6        30.14F
STERLING       FAIR      54  45  71 SE6       30.12F
HOLYOKE        FAIR      59  46  63 E5        30.14F
FORT MORGAN    FAIR      55  45  69 SE6       30.13F
$$

COZ086-089-092>099-210300-
...SOUTHEAST COLORADO...

CITY           SKY/WX    TMP DP  RH WIND       PRES   REMARKS
PUEBLO         FAIR      62  43  49 S7        30.13R
LA JUNTA       MOCLDY    65  45  48 NE9       30.11S
LAMAR          CLOUDY    66  46  48 MISG      30.09R
SPRINGFIELD      N/A     61  44  53 SE12      30.12R
$$




USA.gov is the U.S. government's official web portal to all federal, state and local government web resources and services.